Regional Weather Roundup
Issued by NWS

Home | Current Version | Previous Version | Text Only | Print | Product List | Glossary Off
Versions: 1 2 3 4 5 6 7 8 9 10 11 12 13 14 15 16 17 18 19 20 21 22 23 24 25 26 27 28 29 30 31 32 33 34 35 36 37 38 39 40 41 42 43 44 45 46 47 48 49 50

000
ASUS45 KTFX 021604
RWRMT
MONTANA REGIONAL WEATHER ROUNDUP
NATIONAL WEATHER SERVICE GREAT FALLS MT
1000 AM MDT WED SEP 02 2015

NOTE: "FAIR" INDICATES FEW OR NO CLOUDS BELOW 12000 FEET WITH NO
SIGNIFICANT WEATHER AND/OR OBSTRUCTIONS TO VISIBILITY.

MTZ001>007-043-021700-
WEST OF THE DIVIDE

CITY           SKY/WX    TMP DP  RH WIND       PRES   REMARKS
KALISPELL      CLOUDY    63  40  42 S6        29.78R
MISSOULA       PTSUNNY   58  41  53 CALM      29.83S
BUTTE          PTSUNNY   57  35  43 VRB3      29.88F
MULLAN PASS    CLOUDY    45  41  86 SW9G18    29.91R
DEER LODGE       N/A     54  37  54 NE6       29.87S
EUREKA           N/A     63  37  39 S7        29.74S
HAMILTON         N/A     61  43  51 CALM      29.83S
LIBBY            N/A     64  43  45 SE7G17    29.78R
$$

MTZ008-052>055-021700-
SOUTHWEST MONTANA

CITY           SKY/WX    TMP DP  RH WIND       PRES   REMARKS
BOZEMAN        PTSUNNY   73  37  27 E3        29.82S
DILLON         PTSUNNY   60  38  43 SW7       29.86S
W YELLOWSTONE  MOSUNNY   64  36  34 SW23G29   30.06R
$$

MTZ009-010-012-014-046-048-049-054-021700-
EAST SLOPES AND CENTRAL MONTANA

CITY           SKY/WX    TMP DP  RH WIND       PRES   REMARKS
CUT BANK       CLOUDY    68  29  23 W16G22    29.71F
GREAT FALLS    PTSUNNY   66  35  31 NW8       29.71S
HELENA         CLOUDY    60  39  45 CALM      29.78R
$$

MTZ011-013-016-021-045-047-050-051-021700-
NORTH CENTRAL MONTANA

CITY           SKY/WX    TMP DP  RH WIND       PRES   REMARKS
HAVRE          PTSUNNY   67  38  34 W9        29.66F
LEWISTOWN      MOSUNNY   75  41  29 E7        29.77F
N BAR RANCH      N/A     66  46  48 CALM      29.82F
CHINOOK          N/A     63  43  48 CALM      29.66F
FORT BENTON      N/A     68  37  32 CALM      29.70S
$$

MTZ017>020-022>027-061-062-021700-
NORTHEAST MONTANA

CITY           SKY/WX    TMP DP  RH WIND       PRES   REMARKS
GLASGOW        SUNNY     73  46  38 SE12      29.67S
JORDAN           N/A     82  39  21 W3        29.69F
SIDNEY         MOSUNNY   73  55  53 CALM      29.72F
WOLF POINT     SUNNY     74  49  41 E7        29.68F
PLENTYWOOD       N/A     79  54  41 SE14      29.72F
POPLAR           N/A     77  50  38 E8        29.69F
$$

MTZ028>42-056>058-021700-
SOUTHCENTRAL AND SOUTHEAST MONTANA

CITY           SKY/WX    TMP DP  RH WIND       PRES   REMARKS
BAKER          SUNNY     83  50  31 S15       29.80S
BILLINGS       MOSUNNY   78  40  25 SW8       29.77F
LIVINGSTON     MOSUNNY   82  35  18 SW24G36   29.80F
MILES CITY     PTSUNNY   76  47  35 SE10      29.73F
FORSYTH          N/A     75  45  33 N3        29.72S
$$

REGIONAL REPORTS...DAKOTAS

CITY           SKY/WX    TMP DP  RH WIND       PRES   REMARKS
WILLISTON      PTSUNNY   81  60  48 SE9       29.74F
MINOT          SUNNY     79  66  64 E8        29.76F
DICKINSON      MOSUNNY   87  54  32 S12       29.79R
BISMARCK       CLOUDY    71  67  87 E8        29.79F
GRAND FORKS    SUNNY     78  67  68 S10       29.82S
FARGO          SUNNY     79  65  62 S9        29.82S
BUFFALO SD       N/A     82  54  37 S12       29.77F
RAPID CITY     MOSUNNY   81  57  43 SE3       29.85S
$$

REGIONAL REPORTS...WYOMING/IDAHO/WASHINGTON

CITY           SKY/WX    TMP DP  RH WIND       PRES   REMARKS
GILLETTE       SUNNY     84  44  24 SW16      29.91S
SHERIDAN       MOSUNNY   80  44  27 VRB5      29.85S
BUFFALO WY     MOSUNNY   87  37  17 W13       29.95F
CODY           SUNNY     79  37  22 SW7       29.93S
YELLOWSTONE LA   N/A     63  35  35 VRB5      30.16F
IDAHO FALLS    MOSUNNY   74  40  29 S15       29.97S
SALMON         MOSUNNY   57  39  51 CALM      29.83F
BOISE          CLOUDY    73  38  27 SE3       29.88S
SPOKANE        CLOUDY    60  48  64 S22G28    29.81R
$$

REGIONAL REPORTS...ALBERTA

CITY           SKY/WX    TMP DP  RH WIND       PRES   REMARKS
$$

REGIONAL REPORTS...SASKATCHEWAN

CITY           SKY/WX    TMP DP  RH WIND       PRES   REMARKS
$$



USA.gov is the U.S. government's official web portal to all federal, state and local government web resources and services.